Wetbulb
63.33 61.40 60.21 60.60 60.37 58.44 57.39 56.66 57.42 56.81 55.64 54.76 54.51 53.52 51.49 50.23 50.32 48.47 47.73 46.38 45.18 45.69
61.84 60.86 60.21 60.51 58.98 57.97 57.56 57.57 55.61 54.77 53.49 52.19 50.85 49.45 48.00 47.08 46.22 45.56 45.09 44.19 44.13 44.53
61.72 61.12 60.52 58.80 56.99 56.22 54.44 53.95 53.20 52.21 50.70 49.12 48.32 47.75 46.30 44.99 45.19 43.92 43.01 44.87 44.70 44.63
59.96 58.98 57.95 55.88 54.49 52.96 52.24 51.81 51.04 50.25 49.34 48.38 47.08 45.92 44.92 44.48 44.05 42.83 41.95 43.03 44.00 44.45
56.88 56.05 54.40 53.07 51.82 50.94 49.29 49.03 48.88 48.97 48.72 47.72 46.00 44.56 44.14 43.49 42.90 41.89 41.27 41.97 42.46 43.38
53.67 52.48 51.02 50.15 49.10 48.19 47.69 47.46 47.64 48.02 48.00 46.16 45.17 43.94 43.06 42.60 42.08 41.25 41.21 41.42 41.61 42.40
51.63 49.47 48.23 47.81 47.45 47.63 47.56 47.23 47.02 46.78 46.32 45.27 44.17 43.54 42.58 41.77 40.30 39.87 40.56 41.27 41.91 43.24
47.68 47.65 47.25 46.81 46.67 46.70 46.35 45.88 45.74 45.74 45.32 44.51 43.81 43.97 42.14 41.16 39.26 38.33 38.90 40.37 41.84 42.58
47.33 46.63 45.38 44.53 43.66 43.41 43.15 43.38 43.74 43.89 44.11 42.98 44.36 43.76 44.40 43.63 38.21 37.85 37.92 38.42 39.26 39.38
45.56 43.96 43.13 42.74 42.29 41.19 40.74 40.73 40.37 40.87 41.34 40.88 40.99 42.18 42.10 43.28 37.81 36.94 37.18 36.77 36.38 37.74
43.28 42.14 41.80 41.17 40.08 39.54 39.26 39.02 39.15 39.95 40.58 41.59 40.64 40.06 39.60 39.91 36.39 35.79 35.96 35.71 36.00 35.84
42.56 41.10 41.45 40.36 38.47 38.56 38.61 38.69 38.65 40.52 40.58 36.10 35.29 38.76 38.54 36.77 33.62 34.16 33.62 35.25 35.73 37.05
41.01 40.69 38.20 37.54 36.42 35.80 35.09 35.04 36.10 35.51 36.46 38.98 34.22 37.84 38.08 36.95 33.70 31.60 32.48 33.21 34.56 37.93
38.77 37.46 35.60 33.94 32.83 32.96 32.91 32.42 31.89 32.45 32.69 33.18 34.60 34.19 37.49 37.30 33.57 32.52 33.03 32.49 33.33 34.88
MSLP
1011.53 1013.05 1013.45 1014.31 1014.79 1015.11 1015.92 1016.69 1016.09 1015.96 1016.32 1016.57 1016.12 1016.33 1016.55 1016.73 1016.78 1016.91 1016.99 1017.29 1017.17 1017.38
1009.64 1012.97 1013.49 1014.67 1015.10 1015.61 1016.14 1016.19 1016.45 1016.63 1016.99 1016.94 1016.50 1016.51 1016.75 1017.02 1017.45 1017.47 1017.46 1017.76 1017.37 1017.40
1011.97 1013.09 1014.20 1015.12 1015.60 1015.97 1016.10 1016.71 1017.10 1017.22 1017.26 1017.05 1016.97 1017.01 1017.23 1017.62 1017.87 1017.75 1017.61 1017.71 1017.41 1017.31
1012.70 1013.45 1014.65 1015.66 1015.99 1016.08 1016.69 1017.27 1017.59 1017.25 1017.03 1017.15 1017.44 1017.96 1017.95 1018.07 1017.96 1017.89 1018.00 1017.88 1017.68 1017.55
1012.79 1013.87 1015.25 1015.91 1016.55 1016.82 1017.09 1017.41 1017.56 1017.21 1017.21 1017.90 1018.07 1018.02 1018.12 1018.33 1018.43 1018.41 1018.33 1017.95 1017.98 1017.48
1013.90 1014.59 1015.75 1016.55 1016.93 1017.21 1017.24 1017.35 1017.34 1017.29 1017.64 1017.99 1018.02 1018.33 1018.43 1018.91 1018.95 1018.81 1018.52 1018.09 1017.72 1017.33
1014.84 1015.52 1016.40 1016.99 1017.11 1017.32 1017.42 1017.42 1017.30 1017.71 1018.10 1017.99 1018.24 1018.66 1019.02 1019.45 1019.26 1018.96 1018.61 1018.16 1017.80 1016.99
1015.56 1016.26 1016.78 1017.33 1017.66 1017.89 1017.82 1017.78 1017.88 1018.53 1018.15 1018.45 1019.12 1019.59 1019.65 1019.41 1019.21 1019.21 1018.77 1018.25 1017.31 1017.52
1016.37 1017.15 1017.67 1017.88 1017.97 1018.35 1018.34 1018.49 1018.73 1019.25 1019.07 1019.83 1019.59 1019.99 1019.74 1019.47 1019.69 1019.42 1018.65 1018.26 1018.29 1017.68
1017.09 1017.57 1018.03 1018.07 1018.61 1019.27 1019.22 1019.59 1019.97 1019.65 1019.89 1020.33 1019.78 1020.28 1019.97 1020.06 1019.65 1019.26 1018.99 1019.07 1018.35 1017.53
1016.96 1018.03 1018.80 1018.97 1019.37 1019.67 1019.87 1020.02 1019.96 1019.85 1020.65 1020.32 1020.43 1020.72 1019.97 1020.00 1019.61 1019.45 1019.01 1018.69 1018.19 1017.90
1018.07 1018.36 1019.07 1019.52 1019.72 1020.13 1019.99 1020.43 1020.53 1020.71 1020.81 1020.75 1021.12 1020.76 1020.38 1020.17 1020.03 1019.30 1018.74 1018.70 1018.48 1018.29
1018.92 1019.13 1019.62 1020.59 1020.87 1020.92 1021.15 1021.56 1021.34 1021.47 1021.78 1021.52 1021.57 1021.08 1020.31 1020.54 1019.72 1019.21 1019.31 1019.23 1018.98 1018.32
1019.97 1020.48 1021.09 1021.48 1021.60 1021.94 1022.13 1022.45 1022.39 1022.24 1022.06 1022.00 1021.68 1021.23 1020.63 1020.16 1019.90 1020.07 1019.91 1019.28 1018.69 1017.87
Wind_Speed
14 7 8 5 4 3 3 3 3 6 5 5 6 5 5 3 4 5 5 6 5 2
15 12 11 8 5 4 4 4 6 6 6 5 6 6 6 5 6 5 5 5 5 3
13 12 10 6 6 6 6 6 6 6 5 6 6 6 6 5 4 5 4 4 5 4
12 12 10 8 7 8 7 6 5 5 7 7 6 5 6 5 6 7 6 5 5 5
14 14 11 9 7 7 7 6 5 6 8 6 5 6 6 6 6 6 6 6 5 5
12 12 11 9 8 7 6 6 6 7 6 5 6 5 6 5 5 5 5 5 6 6
11 11 9 7 7 7 6 6 7 7 5 6 5 6 5 4 5 6 6 6 5 6
11 10 9 9 8 7 9 8 7 6 6 6 4 2 3 5 6 6 6 6 6 6
11 10 9 8 7 8 7 7 8 6 6 3 2 5 8 6 4 5 5 6 6 7
10 10 8 8 8 6 7 5 5 5 5 3 5 10 10 11 5 5 6 6 6 7
12 9 7 7 7 6 4 4 3 5 4 7 8 11 13 13 6 5 5 6 7 6
9 9 7 8 7 6 6 6 6 5 7 7 5 10 12 11 6 6 7 7 7 7
8 9 9 6 7 6 6 5 5 7 6 7 5 8 12 12 5 6 6 7 7 11
9 9 7 7 5 6 6 5 6 6 5 5 6 8 13 18 7 5 6 5 5 6
Wind_Direction
120 133 132 132 143 142 137 195 75 78 82 60 66 62 59 51 40 35 39 29 28 313
131 151 142 157 150 140 136 101 82 83 74 69 65 58 54 48 37 40 26 358 0 348
138 137 142 136 132 128 96 89 94 87 82 64 54 51 66 57 33 33 9 351 354 344
129 119 119 124 117 98 95 93 90 93 76 69 63 53 57 45 32 22 356 343 344 316
115 117 112 101 92 101 94 83 87 69 70 85 79 57 52 40 19 5 344 336 326 327
96 100 99 98 95 89 94 82 67 68 81 82 71 61 49 31 8 353 331 320 323 310
100 103 99 93 81 77 70 68 62 59 84 78 64 53 38 15 360 345 335 324 309 320
102 93 90 81 74 73 65 58 54 51 51 53 63 48 4 23 357 336 326 336 354 329
96 97 89 85 76 65 66 59 55 43 54 37 56 42 24 9 350 326 349 347 317 309
85 79 77 75 73 67 63 71 61 49 39 359 59 38 14 0 357 346 336 320 318 330
97 93 80 79 75 68 69 64 47 33 24 65 56 42 27 6 346 320 310 316 311 312
77 76 71 60 50 34 38 31 40 45 65 73 38 38 19 3 324 323 323 311 308 300
65 67 67 58 54 37 55 52 41 49 39 48 15 355 8 354 328 328 316 307 285 301
70 77 76 68 60 59 58 58 44 43 19 17 4 344 347 348 344 306 294 291 295 300